Location: ??
(34.9170°N, 135.5016°E)
Time: 18:28:38
(UTC+00:00)

Cosmos 2026 Rocket - Pass Details

Date: 29 October 2020
Orbit: 938 x 1002 km, 82.9° (Epoch: 01 December)

Event Time Altitude Azimuth Distance (km) Brightness Sun altitude
Rises 19:55:12 0° 193° (SSW) 3,700 7.0 -17.3°
Reaches altitude 10° 19:57:44 10° 195° (SSW) 2,759 6.3 -16.8°
Maximum altitude 20:04:02 66° 277° (W) 1,086 4.0 -15.5°
Drops below altitude 10° 20:10:23 10° 0° (N) 2,775 6.3 -14.2°
Sets 20:12:57 0° 3° (N) 3,724 7.0 -13.7°
